FHNUC LFOB-LFPN

Flight info

Callsign FHNUC
Flight time 0h 22m
Altitude 7000
Route DCT
Aircraft C172/L-SFG/C

Departure

Time 2026-04-23 20:10
Airport Beauvais-Tillé airport (LFOB)

Arrival

Time 2026-04-23 20:33
Airport Toussus-le-Noble Airport (LFPN)
Time Latitude Longitude Altitude Speed Heading
2026-04-23 20:05 49.46220 2.12085 359 ft 0 kts 221°
2026-04-23 20:08 49.46217 2.12082 359 ft 0 kts 182°
2026-04-23 20:08 49.46215 2.12110 359 ft 8 kts 66°
2026-04-23 20:08 49.46271 2.12196 360 ft 11 kts 41°
2026-04-23 20:08 49.46274 2.12227 359 ft 0 kts 144°
2026-04-23 20:09 49.46262 2.12252 358 ft 5 kts 100°
2026-04-23 20:09 49.46225 2.12301 356 ft 12 kts 134°
2026-04-23 20:09 49.46077 2.12135 356 ft 50 kts 220°
2026-04-23 20:09 49.45718 2.11672 454 ft 70 kts 208°
2026-04-23 20:10 49.45448 2.11431 598 ft 64 kts 192°
2026-04-23 20:10 49.44913 2.11036 797 ft 71 kts 247°
2026-04-23 20:10 49.44596 2.10436 899 ft 83 kts 212°
2026-04-23 20:10 49.44061 2.09978 1013 ft 92 kts 182°
2026-04-23 20:11 49.43343 2.09859 975 ft 113 kts 176°
2026-04-23 20:11 49.42535 2.09799 983 ft 118 kts 175°
2026-04-23 20:11 49.41769 2.09710 1242 ft 105 kts 180°
2026-04-23 20:11 49.41070 2.09587 1436 ft 99 kts 172°
2026-04-23 20:12 49.40378 2.09477 1489 ft 113 kts 175°
2026-04-23 20:12 49.39585 2.09343 1564 ft 116 kts 175°
2026-04-23 20:12 49.38773 2.09206 1570 ft 121 kts 175°
2026-04-23 20:12 49.37916 2.09068 1557 ft 123 kts 176°
2026-04-23 20:13 49.37053 2.08933 1566 ft 124 kts 175°
2026-04-23 20:13 49.36179 2.08800 1564 ft 125 kts 176°
2026-04-23 20:13 49.35305 2.08666 1561 ft 126 kts 176°
2026-04-23 20:13 49.34433 2.08534 1564 ft 126 kts 176°
2026-04-23 20:14 49.33568 2.08403 1568 ft 126 kts 175°
2026-04-23 20:14 49.32690 2.08262 1575 ft 126 kts 176°
2026-04-23 20:14 49.31824 2.08128 1568 ft 127 kts 176°
2026-04-23 20:14 49.30938 2.07985 1564 ft 126 kts 176°
2026-04-23 20:15 49.30065 2.07846 1565 ft 125 kts 175°
2026-04-23 20:15 49.29205 2.07704 1562 ft 125 kts 176°
2026-04-23 20:15 49.28341 2.07562 1562 ft 125 kts 175°
2026-04-23 20:15 49.27475 2.07418 1572 ft 125 kts 175°
2026-04-23 20:16 49.26595 2.07276 1572 ft 126 kts 175°
2026-04-23 20:16 49.25717 2.07127 1568 ft 126 kts 176°
2026-04-23 20:16 49.24843 2.06977 1564 ft 126 kts 175°
2026-04-23 20:16 49.23984 2.06822 1560 ft 125 kts 176°
2026-04-23 20:17 49.23117 2.06660 1559 ft 125 kts 176°
2026-04-23 20:17 49.22256 2.06501 1557 ft 124 kts 176°
2026-04-23 20:17 49.21391 2.06344 1559 ft 124 kts 175°
2026-04-23 20:17 49.20539 2.06196 1557 ft 124 kts 176°
2026-04-23 20:18 49.19677 2.06052 1564 ft 124 kts 176°
2026-04-23 20:18 49.18807 2.05907 1561 ft 125 kts 175°
2026-04-23 20:18 49.17939 2.05764 1549 ft 125 kts 176°
2026-04-23 20:18 49.17077 2.05620 1554 ft 125 kts 175°
2026-04-23 20:19 49.16209 2.05479 1556 ft 126 kts 176°
2026-04-23 20:19 49.15338 2.05334 1545 ft 126 kts 176°
2026-04-23 20:19 49.14467 2.05193 1553 ft 126 kts 176°
2026-04-23 20:19 49.13597 2.05052 1551 ft 125 kts 176°
2026-04-23 20:20 49.12725 2.04908 1536 ft 125 kts 176°
2026-04-23 20:20 49.11863 2.04770 1540 ft 124 kts 176°
2026-04-23 20:20 49.10998 2.04627 1544 ft 124 kts 176°
2026-04-23 20:20 49.10142 2.04486 1543 ft 124 kts 176°
2026-04-23 20:21 49.09291 2.04352 1544 ft 123 kts 174°
2026-04-23 20:21 49.08433 2.04306 1546 ft 122 kts 172°
2026-04-23 20:21 49.07591 2.04280 1547 ft 121 kts 169°
2026-04-23 20:21 49.06737 2.04242 1538 ft 121 kts 172°
2026-04-23 20:22 49.05893 2.04208 1544 ft 122 kts 171°
2026-04-23 20:22 49.05044 2.04174 1541 ft 122 kts 170°
2026-04-23 20:22 49.04189 2.04138 1549 ft 122 kts 171°
2026-04-23 20:22 49.03330 2.04101 1551 ft 123 kts 171°
2026-04-23 20:23 49.02473 2.04065 1554 ft 123 kts 171°
2026-04-23 20:23 49.01614 2.04031 1564 ft 124 kts 171°
2026-04-23 20:23 49.00748 2.03999 1551 ft 124 kts 171°
2026-04-23 20:23 48.99892 2.03969 1558 ft 123 kts 171°
2026-04-23 20:24 48.99033 2.03943 1553 ft 123 kts 170°
2026-04-23 20:24 48.98169 2.03916 1551 ft 123 kts 171°
2026-04-23 20:24 48.97312 2.03887 1548 ft 123 kts 171°
2026-04-23 20:24 48.96457 2.03858 1555 ft 124 kts 171°
2026-04-23 20:25 48.95590 2.03825 1555 ft 124 kts 171°
2026-04-23 20:25 48.94731 2.03797 1553 ft 124 kts 170°
2026-04-23 20:25 48.93868 2.03788 1552 ft 124 kts 170°
2026-04-23 20:25 48.93005 2.03782 1546 ft 123 kts 169°
2026-04-23 20:26 48.92142 2.03771 1552 ft 123 kts 170°
2026-04-23 20:26 48.91289 2.03761 1547 ft 123 kts 169°
2026-04-23 20:26 48.90429 2.03755 1558 ft 123 kts 170°
2026-04-23 20:26 48.89571 2.03757 1555 ft 122 kts 170°
2026-04-23 20:27 48.88729 2.03759 1539 ft 122 kts 169°
2026-04-23 20:27 48.87881 2.03765 1556 ft 121 kts 169°
2026-04-23 20:27 48.87026 2.03776 1556 ft 122 kts 170°
2026-04-23 20:27 48.86170 2.03788 1540 ft 122 kts 170°
2026-04-23 20:28 48.85326 2.03801 1538 ft 121 kts 169°
2026-04-23 20:28 48.84481 2.03812 1543 ft 121 kts 170°
2026-04-23 20:28 48.83634 2.03821 1537 ft 121 kts 169°
2026-04-23 20:28 48.82796 2.03828 1545 ft 121 kts 169°
2026-04-23 20:29 48.81949 2.03833 1548 ft 121 kts 169°
2026-04-23 20:29 48.81107 2.03916 1546 ft 120 kts 165°
2026-04-23 20:29 48.80281 2.04020 1545 ft 120 kts 165°
2026-04-23 20:29 48.79438 2.04134 1541 ft 120 kts 165°
2026-04-23 20:30 48.78610 2.04246 1548 ft 120 kts 164°
2026-04-23 20:30 48.76950 2.04467 1515 ft 114 kts 165°
2026-04-23 20:30 48.76209 2.04547 1495 ft 102 kts 165°
2026-04-23 20:31 48.75543 2.04697 1427 ft 93 kts 147°
2026-04-23 20:31 48.75092 2.05232 1374 ft 75 kts 110°
2026-04-23 20:31 48.74908 2.05941 1297 ft 72 kts 105°
2026-04-23 20:31 48.74730 2.06629 1230 ft 64 kts 102°
2026-04-23 20:32 48.74649 2.07292 1122 ft 67 kts 92°
2026-04-23 20:32 48.74728 2.08014 961 ft 73 kts 77°
2026-04-23 20:32 48.74867 2.08728 803 ft 69 kts 70°
2026-04-23 20:32 48.75012 2.09373 643 ft 61 kts 68°
2026-04-23 20:33 48.75138 2.09944 545 ft 52 kts 63°
2026-04-23 20:33 48.75246 2.10400 515 ft 37 kts 71°
2026-04-23 20:33 48.75336 2.10774 506 ft 52 kts 69°
2026-04-23 20:33 48.75428 2.11318 706 ft 44 kts 78°
2026-04-23 20:34 48.75366 2.11902 642 ft 76 kts 95°
2026-04-23 20:34 48.75440 2.12423 858 ft 68 kts 27°
2026-04-23 20:34 48.75768 2.11855 783 ft 95 kts 240°
2026-04-23 20:34 48.75396 2.12162 519 ft 94 kts 56°
2026-04-23 20:35 48.75834 2.12005 496 ft 45 kts 341°
2026-04-23 20:35 48.75997 2.12001 506 ft 6 kts 49°
2026-04-23 20:35 48.76000 2.12006 506 ft 0 kts 50°
2026-04-23 20:36 48.76043 2.11984 506 ft 24 kts 324°
2026-04-23 20:36 48.76190 2.11611 527 ft 59 kts 287°
2026-04-23 20:36 48.76282 2.10982 667 ft 65 kts 266°
2026-04-23 20:36 48.76066 2.10312 754 ft 82 kts 234°
2026-04-23 20:37 48.75751 2.09489 828 ft 90 kts 237°
2026-04-23 20:37 48.75457 2.08672 868 ft 86 kts 231°
2026-04-23 20:37 48.75067 2.08750 810 ft 73 kts 112°
2026-04-23 20:37 48.75048 2.09512 647 ft 74 kts 69°
2026-04-23 20:38 48.75207 2.10241 527 ft 69 kts 70°
2026-04-23 20:38 48.75350 2.10862 504 ft 62 kts 68°
2026-04-23 20:38 48.75508 2.11554 664 ft 69 kts 64°
2026-04-23 20:38 48.75777 2.12036 930 ft 67 kts 355°
2026-04-23 20:39 48.75885 2.11279 1022 ft 94 kts 250°
2026-04-23 20:39 48.75662 2.10238 1058 ft 112 kts 248°
2026-04-23 20:39 48.75375 2.09101 1053 ft 111 kts 249°
2026-04-23 20:39 48.74974 2.08346 1035 ft 83 kts 169°
2026-04-23 20:40 48.74791 2.08930 871 ft 69 kts 89°
2026-04-23 20:40 48.74876 2.09620 647 ft 66 kts 70°
2026-04-23 20:40 48.75013 2.10227 529 ft 55 kts 68°
2026-04-23 20:40 48.75131 2.10737 511 ft 56 kts 69°
2026-04-23 20:41 48.75263 2.11285 674 ft 53 kts 62°
2026-04-23 20:41 48.75423 2.11805 790 ft 63 kts 58°
2026-04-23 20:41 48.75736 2.12261 996 ft 70 kts 356°
2026-04-23 20:41 48.75885 2.11447 1032 ft 105 kts 248°
2026-04-23 20:42 48.75614 2.10320 954 ft 120 kts 248°
2026-04-23 20:42 48.75326 2.09151 864 ft 111 kts 250°
2026-04-23 20:42 48.74935 2.08437 836 ft 73 kts 164°
2026-04-23 20:42 48.74901 2.08909 723 ft 49 kts 76°
2026-04-23 20:43 48.75009 2.09385 629 ft 49 kts 71°
2026-04-23 20:43 48.75120 2.09866 562 ft 48 kts 66°
2026-04-23 20:43 48.75238 2.10359 518 ft 46 kts 68°
2026-04-23 20:43 48.75319 2.10775 507 ft 50 kts 70°
2026-04-23 20:44 48.75426 2.11284 658 ft 49 kts 75°
2026-04-23 20:44 48.75563 2.11734 795 ft 52 kts 23°
2026-04-23 20:44 48.75533 2.11226 847 ft 75 kts 252°
2026-04-23 20:44 48.75456 2.10302 779 ft 106 kts 254°
2026-04-23 20:45 48.75297 2.09299 763 ft 87 kts 264°
2026-04-23 20:45 48.75072 2.08871 537 ft 72 kts 54°